Вернуться в каталог

STARLINK-37203

АктивенСвязьSSO
NORAD 68388·PAYLOAD·🇺🇸 United States

Запущен Mar 26, 2026 с Vandenberg Space Force Base

Loading…

Ближайшие Пролёты (ближайшие 24 часа)

TLE

СвежийSource: CelesTrak SupGP

Эпоха: Sep 15, 2026, 04:22 UTC

1 68388C 26063J   26258.18243056  .00014586  00000+0  45288-3 0  2583
2 68388  97.2854  39.1603 0000993  83.4582  13.0298 15.33424890    16

Отслеживайте STARLINK-37203 в реальном времени с AllMySat

Download on the App Store